Weather History for Ithaca, NY

Change the Weather History Date:

Saturday, October 20, 2012

  Actual Average Record
Temperature  
Mean Temperature 50 °F -  
Max Temperature 56 °F 53 °F 82 °F (1963)
Min Temperature 43 °F 35 °F 18 °F (1972)
Degree Days  
Heating Degree Days 14    
Moisture  
Dew Point 42 °F    
Average Humidity 76    
Maximum Humidity 97    
Minimum Humidity 53    
Precipitation  
Precipitation 0.00 in - - ()
Sea Level Pressure  
Sea Level Pressure 29.73 in    
Wind  
Wind Speed 6 mph (SSW)    
Max Wind Speed 15 mph    
Max Gust Speed 22 mph    
Visibility 10 miles    
Events Rain    
Averages and records for this station are not official NWS values.
T = Trace of Precipitation, MM = Missing Value Source: NWS Daily Summary

Daily Weather History Graph

Daily Weather History Graph

Search for Another Location

Airport:

Trip Planner

Search our weather history database for the weather conditions in past years. The results will help you decide how hot, cold, wet, or windy it might be!

Date:

Astronomy

Oct. 20, 2012 Rise Set
Actual Time 7:25 AM EDT 6:15 PM EDT
Civil Twilight 6:56 AM EDT 6:43 PM EDT
Nautical Twilight 6:23 AM EDT 7:16 PM EDT
Astronomical Twilight 5:51 AM EDT 7:48 PM EDT
Moon 1:03 PM EDT (10/20) 10:55 PM EDT (10/20)
Length of Visible Light 11h 47m
Length of Day
10h 49m
Waxing Crescent, 34% of the Moon is Illuminated
Oct 20
Waxing Crescent
Oct 21
First Quarter
Oct 29
Full
Nov 6
Last Quarter
Nov 13
New

Hourly Weather History & Observations

Time (EDT) Temp. Windchill Dew Point Humidity Pressure Visibility Wind Dir Wind Speed Gust Speed Precip Events Conditions
12:56 AM 52.9 °F - 52.0 °F 97% 29.64 in 6.0 mi SSE 4.6 mph - N/A   Clear
1:56 AM 50.0 °F - 48.9 °F 96% 29.65 in 5.0 mi SW 3.5 mph - N/A   Scattered Clouds
2:56 AM 54.0 °F - 50.9 °F 89% 29.65 in 10.0 mi East 4.6 mph - 0.00 in Rain Light Rain
3:56 AM 50.9 °F - 48.9 °F 93% 29.66 in 10.0 mi South 3.5 mph - 0.00 in   Mostly Cloudy
4:56 AM 50.0 °F - 46.9 °F 89% 29.68 in 10.0 mi SW 10.4 mph - N/A   Clear
5:56 AM 46.9 °F - 43.9 °F 89% 29.69 in 10.0 mi SSW 4.6 mph - N/A   Clear
6:29 AM 48.2 °F - 42.8 °F 82% 29.69 in 10.0 mi SW 5.8 mph - N/A   Clear
6:56 AM 46.9 °F - 43.0 °F 86% 29.71 in 10.0 mi South 4.6 mph - N/A   Scattered Clouds
7:56 AM 46.9 °F - 43.0 °F 86% 29.71 in 10.0 mi Calm Calm - N/A   Scattered Clouds
8:56 AM 48.9 °F - 43.0 °F 80% 29.72 in 10.0 mi SSW 6.9 mph - N/A   Mostly Cloudy
9:56 AM 50.0 °F - 41.9 °F 74% 29.73 in 10.0 mi WSW 8.1 mph - N/A   Mostly Cloudy
10:56 AM 50.0 °F - 39.9 °F 68% 29.74 in 10.0 mi SW 8.1 mph - N/A   Mostly Cloudy
12:56 PM 54.0 °F - 39.9 °F 59% 29.73 in 10.0 mi WSW 8.1 mph - N/A   Mostly Cloudy
1:56 PM 54.9 °F - 37.9 °F 53% 29.71 in 10.0 mi WSW 9.2 mph - N/A   Mostly Cloudy
2:56 PM 56.8 °F - 39.9 °F 53% 29.71 in 10.0 mi South 15.0 mph 21.9 mph N/A   Mostly Cloudy
3:56 PM 52.9 °F - 41.0 °F 64% 29.73 in 10.0 mi SW 11.5 mph 20.7 mph N/A   Mostly Cloudy
4:56 PM 52.9 °F - 39.9 °F 61% 29.74 in 10.0 mi SW 15.0 mph - N/A   Mostly Cloudy
5:56 PM 50.9 °F - 37.9 °F 61% 29.75 in 10.0 mi SW 8.1 mph - N/A   Scattered Clouds
6:56 PM 47.8 °F - 37.9 °F 69% 29.77 in 10.0 mi SSW 5.8 mph - N/A   Clear
7:56 PM 45.9 °F 41.7 °F 36.9 °F 71% 29.79 in 10.0 mi South 8.1 mph - N/A   Clear
8:56 PM 45.9 °F 41.2 °F 37.9 °F 74% 29.81 in 10.0 mi SW 9.2 mph - N/A   Clear
9:56 PM 45.9 °F 42.9 °F 37.9 °F 74% 29.81 in 10.0 mi SW 5.8 mph - N/A   Mostly Cloudy
10:56 PM 45.9 °F 41.2 °F 37.9 °F 74% 29.81 in 10.0 mi SSW 9.2 mph - N/A   Mostly Cloudy
11:56 PM 43.9 °F 39.9 °F 37.9 °F 80% 29.81 in 10.0 mi SSW 6.9 mph - N/A   Scattered Clouds